Home   Weather   Plattsburgh   Past weeks
Flag for USA

Past Weather in Plattsburgh, New York, USA — Yesterday and Last 2 Weeks

Now
87 °F

Passing clouds.


Feels Like: 94 °F
Forecast: 89 / 67 °F
Wind: No wind

Location: Plattsburgh International Airport

Current Time: Jul 19, 2019 at 7:14:06 pm

Latest Report: Jul 19, 2019 at 5:53 pm


Visibility: 10 mi

Pressure: 29.71 "Hg

Humidity: 61%

Dew Point: 72 °F

Location of PlattsburghLocation

Past Weather in Plattsburgh — Graph

°F

Plattsburgh Temperature Yesterday

Maximum temperature yesterday: 80 °F (at 3:53 pm)
Minimum temperature yesterday: 62 °F (at 5:53 am)
Average temperature yesterday: 71 °F

High & Low Weather Summary for the Past Weeks

 TemperatureHumidityPressure
High90 °F (Jul 19, 2:53 pm)97% (Jul 5, 2:53 am)30.08 "Hg (Jul 5, 2:53 am)
Low49 °F (Jul 8, 4:53 am)25% (Jul 9, 3:53 pm)29.67 "Hg (Jul 12, 4:53 am)
Average72 °F70%29.91 "Hg
* Reported Jul 4 5:53 pm — Jul 19 5:53 pm, Plattsburgh. Weather by CustomWeather, © 2019

Note: Actual official high and low records may vary slightly from our data, if they occured in-between our weather recording intervals... More about our weather records

Advertising

Plattsburgh Weather History for the Previous 24 Hours

Scroll right to see more
 ConditionsComfort  
Time TempWeatherWind HumidityBarometerVisibility
5:53 pm
Fri, Jul 19
87 °FPassing clouds.No wind61%29.71 "Hg10 mi
4:53 pm89 °FSunny.9 mph55%29.71 "Hg10 mi
3:53 pm89 °FScattered clouds.7 mph53%29.70 "Hg10 mi
2:53 pm90 °FPassing clouds.6 mph50%29.72 "Hg10 mi
1:53 pm85 °FMostly cloudy.8 mph68%29.70 "Hg10 mi
12:53 pm83 °FPartly sunny.9 mph70%29.72 "Hg10 mi
11:53 am83 °FBroken clouds.14 mph68%29.74 "Hg10 mi
10:53 am82 °FScattered clouds.13 mph67%29.75 "Hg10 mi
9:53 am80 °FSunny.12 mph71%29.75 "Hg10 mi
8:53 am77 °FSunny.8 mph74%29.77 "Hg10 mi
7:53 am73 °FBroken clouds.7 mph84%29.78 "Hg10 mi
6:53 am71 °FPassing clouds.No wind87%29.80 "Hg10 mi
5:53 am66 °FPassing clouds.3 mph96%29.80 "Hg8 mi
4:53 am69 °FClear.3 mph93%29.80 "Hg10 mi
3:53 am68 °FClear.3 mph93%29.81 "Hg10 mi
2:53 am68 °FPassing clouds.No wind93%29.81 "Hg10 mi
1:53 am70 °FPassing clouds.No wind90%29.82 "Hg10 mi
12:53 am69 °FPassing clouds.No wind90%29.82 "Hg10 mi
11:53 pm
Thu, Jul 18
68 °FClear.No wind93%29.82 "Hg10 mi
10:53 pm69 °FClear.No wind93%29.83 "Hg10 mi
9:53 pm69 °FClear.No wind93%29.85 "Hg10 mi
8:53 pm73 °FClear.No wind84%29.85 "Hg10 mi
7:53 pm76 °FSunny.No wind72%29.85 "Hg10 mi
Weather by CustomWeather, © 2019

See weather overview